Portada
METAR-TAF:

METAR-TAF

Aeroports :

Plant City, Florida, Estats Units d'Amèrica

latitud: 28-00-01N, longitud: 082-09-51W, altitud: 47 m

Observació

L'informe es va fer fa 19 minuts, a les 01:55 UTC
Vent 4 kt del Est
Temperatura 21°C
Humitat 100%
Pressió 1022 hPa
Visibilitat: 16.1 km
Cel ennuvolat a una alçada de 1200 ft
Cel cobert a una alçada de 2000 ft

METAR: KPCM 130155Z AUTO 09004KT 10SM BKN012 OVC020 21/21 A3017 RMK AO2

Hora: 21:14 (02:14 UTC)


TAF: manca

Observacions i pronòstics meteorològics de més de 4000 aeroports (METAR i TAF).

Les estacions disponibles són els punts grocs i vermells al mapa.

Posi el ratolí al punt desitjat per veure el nom de l'estació.

Feu clic per veure les observacions i els pronòstics meteorològics.

Per canviar el mapa: feu clic els botons verds amb una creu de color negre per apropar; al botó verd amb un guió per allunyar la imatge; o en les fletxes verdes per a mapes adjacents.


METAR-TAF: